Location: Unspecified
(0.0000°N, 0.0000°E)
Time: 18:45:56
(UTC+00:00)

Transit 2A - Visible Passes

Search period start: 31 July 2021 00:00
Search period end: 10 August 2021 00:00
Orbit: 598 x 960 km, 66.7° (Epoch: 30 July)

Date Brightness Start Highest point End Pass type
(mag) Time Alt. Az. Time Alt. Az. Time Alt. Az.
31 Jul 8.3 03:55:56 10° SE 03:57:54 13° ESE 04:00:02 10° E visible
31 Jul 6.8 05:37:17 10° WSW 05:40:47 23° WNW 05:44:12 10° NNW visible
01 Aug 5.9 05:04:16 22° SW 05:06:39 42° WNW 05:10:44 10° N visible
02 Aug 5.3 04:31:59 68° SW 04:32:31 83° WNW 04:36:49 10° NNE visible
03 Aug 6.9 03:59:39 37° ENE 03:59:39 37° ENE 04:02:33 10° NE visible
04 Aug 8.5 03:27:13 13° ENE 03:27:13 13° ENE 03:27:52 10° NE visible
04 Aug 7.7 05:07:46 11° WNW 05:07:46 11° WNW 05:08:14 10° NW visible
05 Aug 7.7 04:35:16 14° NNW 04:35:16 14° NNW 04:36:06 10° NNW visible
06 Aug 8.2 04:02:41 10° N 04:02:41 10° N 04:02:45 10° N visible
